[[{"header":{"parameterUnit":"m.s-1","parameterCategory":1,"la1":30.2991,"la2":30.254,"lo1":-89.0895,"lo2":-89.0444,"dy":0.0017,"dx":0.0017,"nx":28,"ny":28,"refTime":"2026-02-18T03:00:00:Z","depth":0,"parameterNumber":2,"parameterNumberName":"U-component_of_WINDS"},"data":[0,0,0,0,0,0,0,0,0,0,0,0,0,0,0,0,0,0,0,0,0,0,0,0,0,0,0,0,0,0,0,0,0,0,0,0,0,0,0,0,0,0,0,0,0,0,0,0,0,0,0,0,0,0,0,0,0,0,-4.4524,-4.4525,0,-4.4676,-4.4678,-4.468,-4.4718,-4.4717,-4.4716,-4.4715,-4.4867,-4.4872,-4.4876,0,0,0,0,0,0,0,0,0,0,0,0,0,-4.4263,-4.4268,-4.4524,-4.4526,-4.4528,-4.4676,-4.4678,-4.468,-4.4718,-4.4717,-4.4716,-4.4715,-4.4865,-4.4871,-4.4877,0,0,0,0,0,0,0,0,0,0,0,0,0,-4.4392,-4.4269,-4.4523,-4.4565,-4.457,-4.4675,-4.4678,-4.4681,-4.4718,-4.4717,-4.4716,-4.4714,-4.4863,-4.487,-4.4878,-4.4952,0,0,-4.49,-4.4904,0,0,0,0,0,0,0,0,-4.4385,-4.4401,-4.4557,-4.4562,-4.4568,-4.4677,-4.4642,-4.4771,-4.4719,-4.4662,-4.4715,-4.4714,-4.4804,-4.4817,-4.4848,-4.4959,-4.4966,-4.4901,-4.4905,-4.4909,-4.4911,0,0,0,0,0,0,0,-4.4376,-4.4395,-4.4584,-4.4559,-4.4566,-4.4575,-4.4591,-4.4667,-4.4739,-4.4667,-4.467,-4.4688,-4.4807,-4.4841,-4.4852,-4.4968,-4.4901,-4.4907,-4.4912,-4.4915,-4.5148,-4.515,0,0,0,0,0,0,-4.436,-4.4387,-4.4579,-4.4588,-4.4471,-4.4581,-4.4599,-4.4643,-4.4738,-4.4752,-4.4689,-4.4689,-4.4829,-4.4843,-4.4857,-4.4951,-4.4909,-4.4915,-4.492,-4.5147,-4.5149,-4.5151,0,0,0,0,0,0,-4.4354,-4.4377,-4.4573,-4.4489,-4.4515,-4.4587,-4.4636,-4.4647,-4.4681,-4.4755,-4.4768,-4.471,-4.4828,-4.4847,-4.4929,-4.4956,-4.4919,-4.4926,-4.5145,-4.5147,-4.515,-4.5137,0,0,0,0,0,0,-4.4347,-4.4375,-4.4404,-4.4489,-4.4519,-4.4642,-4.4637,-4.4651,-4.4694,-4.4695,-4.4778,-4.4791,-4.4829,-4.4918,-4.4936,-4.4966,-4.4931,-4.5142,-4.5146,-4.5149,-4.5135,-4.5139,-4.5142,0,0,0,0,0,-4.4337,-4.4393,-4.4405,-4.4428,-4.4557,-4.4644,-4.466,-4.4704,-4.4696,-4.4725,-4.4774,-4.4788,-4.4951,-4.4926,-4.4947,-4.4979,-4.5141,-4.5145,-4.5149,-4.5134,-4.5138,-4.5142,0,0,0,0,0,0,-4.4306,-4.4405,-4.4419,-4.4504,-4.4566,-4.465,-4.4688,-4.4707,-4.4771,-4.4769,-4.482,-4.4839,-4.4917,-4.4957,-4.4927,-4.5057,-4.5046,-4.5054,-4.5027,-4.5032,-4.5035,-4.5023,-4.4937,0,0,0,0,0,-4.431,-4.4373,-4.4455,-4.4522,-4.4552,-4.4615,-4.4654,-4.4684,-4.4748,-4.4774,-4.4828,-4.4889,-4.4955,-4.4996,-4.506,-4.5143,-4.5161,-4.5175,-4.5179,-4.5181,-4.5187,-4.5234,-4.5241,-4.5164,-4.5164,-4.5164,0,0,-4.4316,-4.4378,-4.4414,-4.4517,-4.4568,-4.4631,-4.4636,-4.4703,-4.475,-4.4783,-4.4864,-4.4906,-4.4978,-4.5061,-4.51,-4.5096,-4.5213,-4.5186,-4.5188,-4.5192,-4.5239,-4.5246,-4.5252,-4.5167,-4.5166,-4.5166,0,0,-4.436,-4.4414,-4.4476,-4.4528,-4.4606,-4.4648,-4.4663,-4.4745,-4.4775,-4.4858,-4.4884,-4.4941,-4.5052,-4.5103,-4.5143,-4.521,-4.5225,-4.523,-4.5246,-4.5291,-4.5297,-4.5303,-4.5326,-4.5333,-4.5236,-4.5236,-4.5236,0,-4.4358,-4.4455,-4.4505,-4.4571,-4.4615,-4.4652,-4.4714,-4.4762,-4.4856,-4.4885,-4.4881,-4.5023,-4.5074,-4.5169,-4.5185,-4.5217,-4.5235,-4.5219,-4.5293,-4.5299,-4.5305,-4.5327,-4.5336,-4.5236,-4.5236,-4.5236,-4.5236,0,-4.4448,-4.4516,-4.4556,-4.4648,-4.4698,-4.4762,-4.4821,-4.4865,-4.4891,-4.4933,-4.5017,-4.5081,-4.5158,-4.5184,-4.5209,-4.5283,-4.5278,-4.5283,-4.5272,-4.5311,-4.5333,-4.5342,-4.5236,-4.5236,-4.5236,-4.5236,0,0,-4.4473,-4.4594,-4.4608,-4.4651,-4.4741,-4.4794,-4.486,-4.4938,-4.4975,-4.504,-4.5096,-4.5191,-4.5197,-4.5242,-4.5274,-4.5314,-4.5362,-4.5314,-4.5316,-4.5319,-4.5447,-4.5441,-4.545,-4.5375,-4.5377,-4.5378,-4.544,0,-4.4527,-4.4647,-4.4695,-4.4792,-4.4854,-4.4892,-4.495,-4.5011,-4.5053,-4.5112,-4.5159,-4.5225,-4.5228,-4.5256,-4.5298,-4.5347,-4.5388,-4.5344,-4.5425,-4.5428,-4.5403,-4.5462,-4.5455,-4.5511,-4.5449,-4.5451,-4.5452,0,-4.4604,-4.4672,-4.4776,-4.486,-4.4888,-4.4939,-4.5015,-4.5072,-4.5143,-4.5171,-4.5224,-4.5254,-4.5324,-4.5313,-4.541,-4.5379,-4.5416,-4.5446,-4.5449,-4.5456,-4.544,-4.5468,-4.553,-4.5537,-4.5466,-4.5465,-4.5464,0,-4.461,-4.4727,-4.4804,-4.484,-4.4941,-4.4976,-4.5019,-4.5089,-4.5134,-4.52,-4.523,-4.5304,-4.5343,-4.54,-4.5449,-4.5436,-4.5541,-4.5534,-4.5565,-4.5564,-4.5583,-4.558,-4.5649,-4.5611,-4.5611,-4.5611,-4.5611,0,-4.4663,-4.4725,-4.4808,-4.4855,-4.4926,-4.4982,-4.5049,-4.5095,-4.5158,-4.5214,-4.5252,-4.5304,-4.5367,-4.5427,-4.5466,-4.5541,-4.5559,-4.5583,-4.5592,-4.5578,-4.5574,-4.56,-4.5597,-4.5613,-4.5613,-4.5612,-4.5612,0,-4.468,-4.4738,-4.4825,-4.4915,-4.4939,-4.4986,-4.5063,-4.511,-4.5156,-4.5227,-4.5247,-4.5318,-4.5391,-4.5447,-4.5541,-4.5568,-4.5646,-4.5657,-4.5622,-4.5627,-4.5655,-4.565,-4.574,-4.5754,-4.5708,-4.5709,-4.5709,0,-4.4708,-4.4757,-4.4853,-4.4894,-4.4938,-4.5004,-4.505,-4.5108,-4.5154,-4.524,-4.5277,-4.5353,-4.5417,-4.5532,-4.5591,-4.5664,-4.5676,-4.5703,-4.5687,-4.5671,-4.5674,-4.567,-4.5674,-4.5703,-4.5703,-4.5703,-4.5704,0,-4.4753,-4.478,-4.4846,-4.4923,-4.4978,-4.5041,-4.5105,-4.5136,-4.5205,-4.5256,-4.5332,-4.5381,-4.548,-4.5554,-4.5634,-4.5678,-4.5702,-4.5709,-4.572,-4.5704,-4.5681,-4.5693,-4.5625,-4.5706,-4.5705,-4.5705,-4.5705,-4.5705,-4.4775,-4.4821,-4.4895,-4.4968,-4.5023,-4.5082,-4.5131,-4.5184,-4.5249,-4.5334,-4.5364,-4.5442,-4.5514,-4.5624,-4.5669,-4.5731,-4.5731,-4.5747,-4.5751,-4.5753,-4.5751,-4.5674,-4.5746,-4.5746,-4.5746,-4.5746,-4.5746,0,-4.482,-4.4871,-4.4938,-4.5027,-4.5084,-4.5105,-4.5177,-4.5223,-4.5292,-4.5357,-4.542,-4.5508,-4.5582,-4.5649,-4.5726,-4.5762,-4.5775,-4.578,-4.5776,-4.5786,-4.5747,-4.5729,-4.5768,-4.5768,-4.5768,-4.5768,-4.5768,-4.5768,-4.485,-4.4928,-4.4965,-4.507,-4.512,-4.5198,-4.5238,-4.5293,-4.5345,-4.5442,-4.5504,-4.5548,-4.5615,-4.5697,-4.5765,-4.5783,-4.5809,-4.5811,-4.5831,-4.5792,-4.5789,-4.5786,-4.5769,-4.5816,-4.5816,-4.5865,-4.5865,-4.5865]},{"header":{"parameterUnit":"m.s-1","parameterCategory":1,"la1":30.2991,"la2":30.254,"lo1":-89.0895,"lo2":-89.0444,"dy":0.0017,"dx":0.0017,"nx":28,"ny":28,"refTime":"2026-02-18T03:00:00:Z","depth":0,"parameterNumber":3,"parameterNumberName":"V-component_of_WINDS"},"data":[0,0,0,0,0,0,0,0,0,0,0,0,0,0,0,0,0,0,0,0,0,0,0,0,0,0,0,0,0,0,0,0,0,0,0,0,0,0,0,0,0,0,0,0,0,0,0,0,0,0,0,0,0,0,0,0,0,0,2.91,2.9102,0,2.9226,2.9227,2.9229,2.9303,2.9303,2.9303,2.9304,2.9432,2.9435,2.9438,0,0,0,0,0,0,0,0,0,0,0,0,0,2.8926,2.8929,2.91,2.9102,2.9104,2.9226,2.9227,2.9229,2.9303,2.9303,2.9303,2.9304,2.9431,2.9434,2.9438,0,0,0,0,0,0,0,0,0,0,0,0,0,2.9022,2.893,2.91,2.9155,2.9161,2.9225,2.9227,2.923,2.9303,2.9303,2.9304,2.9304,2.9429,2.9434,2.9438,2.9458,0,0,2.9453,2.9455,0,0,0,0,0,0,0,0,2.9016,2.9028,2.9145,2.9151,2.9158,2.9249,2.9213,2.9306,2.9302,2.9249,2.9304,2.9304,2.937,2.938,2.9402,2.9464,2.9469,2.9453,2.9456,2.9458,2.9459,0,0,0,0,0,0,0,2.901,2.9023,2.915,2.9147,2.9155,2.9174,2.9188,2.9231,2.9305,2.9254,2.9259,2.9273,2.9374,2.9398,2.9406,2.9471,2.9453,2.9457,2.946,2.9462,2.9558,2.9558,0,0,0,0,0,0,2.8994,2.9017,2.9146,2.9154,2.9087,2.9177,2.9192,2.9219,2.9305,2.9319,2.9273,2.9276,2.939,2.94,2.9411,2.9441,2.9458,2.9462,2.9465,2.9558,2.9558,2.9557,0,0,0,0,0,0,2.899,2.9005,2.9141,2.9087,2.9106,2.9179,2.9209,2.9222,2.9246,2.932,2.9333,2.9283,2.939,2.9404,2.9446,2.9446,2.9464,2.9469,2.9558,2.9558,2.9558,2.95,0,0,0,0,0,0,2.8985,2.9003,2.901,2.9087,2.9108,2.9174,2.9209,2.9224,2.9253,2.9259,2.9333,2.9346,2.9392,2.9439,2.9451,2.9453,2.9472,2.9559,2.9558,2.9558,2.9502,2.9498,2.9494,0,0,0,0,0,2.8978,2.8988,2.901,2.9025,2.9119,2.9173,2.9186,2.9239,2.9253,2.9262,2.931,2.9343,2.9444,2.9443,2.9457,2.946,2.9559,2.9558,2.9558,2.9504,2.9498,2.9494,0,0,0,0,0,0,2.8909,2.8999,2.9025,2.906,2.9108,2.9186,2.9198,2.9231,2.9277,2.928,2.9344,2.936,2.9396,2.9433,2.9429,2.9485,2.9506,2.9508,2.946,2.9455,2.9451,2.9442,2.9476,0,0,0,0,0,2.8898,2.8934,2.9011,2.9035,2.9058,2.9124,2.9149,2.9186,2.9239,2.926,2.9311,2.9361,2.9405,2.9432,2.9476,2.9508,2.9526,2.9518,2.9513,2.951,2.9511,2.9533,2.9531,2.9556,2.9556,2.9556,0,0,2.8875,2.8929,2.8948,2.9022,2.9065,2.9101,2.914,2.9177,2.9206,2.9266,2.9309,2.9348,2.9409,2.9447,2.9466,2.9478,2.9508,2.9509,2.9505,2.9509,2.9532,2.953,2.9528,2.9555,2.9555,2.9555,0,0,2.8853,2.8897,2.8923,2.8964,2.9028,2.9072,2.9078,2.9152,2.918,2.9225,2.9272,2.9307,2.938,2.9422,2.9453,2.945,2.9483,2.9462,2.944,2.9461,2.9459,2.9457,2.9458,2.9457,2.9463,2.9463,2.9463,0,2.8817,2.8874,2.8931,2.8966,2.8999,2.9056,2.9083,2.9121,2.9195,2.9217,2.923,2.9325,2.9369,2.9419,2.9418,2.9441,2.9451,2.9454,2.9454,2.9454,2.9453,2.9454,2.9454,2.946,2.946,2.9461,2.9461,0,2.8827,2.8866,2.8879,2.8951,2.8985,2.9016,2.9079,2.9106,2.9141,2.9184,2.923,2.9286,2.9344,2.9358,2.9392,2.9413,2.9419,2.9442,2.9464,2.9447,2.9449,2.945,2.9456,2.9457,2.9458,2.9459,0,0,2.8763,2.8868,2.8872,2.8907,2.8983,2.9014,2.9049,2.9106,2.9129,2.9179,2.921,2.9272,2.9295,2.933,2.9369,2.9387,2.9384,2.9409,2.9412,2.9403,2.9413,2.9396,2.9395,2.9407,2.9407,2.9407,2.9409,0,2.8753,2.8817,2.8871,2.8916,2.8954,2.901,2.9041,2.9091,2.9133,2.9172,2.9218,2.9262,2.9288,2.931,2.933,2.938,2.9387,2.938,2.9437,2.9438,2.9421,2.9396,2.9377,2.9376,2.941,2.941,2.941,0,2.8749,2.8798,2.8847,2.8921,2.8939,2.8965,2.9023,2.9059,2.9119,2.9148,2.9188,2.923,2.9271,2.9289,2.9346,2.9341,2.9368,2.9396,2.9397,2.9405,2.9423,2.9404,2.9376,2.9376,2.9412,2.9412,2.9411,0,2.8699,2.8778,2.8818,2.8845,2.8932,2.895,2.8987,2.9047,2.9079,2.9129,2.9151,2.9205,2.9235,2.9277,2.9333,2.9341,2.9385,2.9408,2.9412,2.941,2.9418,2.9417,2.9396,2.9434,2.9434,2.9434,2.9434,0,2.8683,2.871,2.8797,2.8821,2.8855,2.8917,2.8949,2.8991,2.9044,2.9079,2.9131,2.9163,2.9234,2.9275,2.9319,2.9361,2.9374,2.9399,2.9411,2.9395,2.9392,2.9414,2.9415,2.9434,2.9434,2.9434,2.9434,0,2.8632,2.8691,2.8739,2.8818,2.8839,2.886,2.8929,2.8956,2.9002,2.9045,2.9059,2.913,2.9181,2.9241,2.9311,2.9341,2.938,2.9396,2.9359,2.9366,2.9367,2.9367,2.9359,2.9362,2.9398,2.9397,2.9397,0,2.8618,2.8641,2.8724,2.8751,2.8787,2.8829,2.8863,2.8926,2.8958,2.9029,2.9047,2.9102,2.915,2.9228,2.9287,2.9341,2.936,2.9354,2.9369,2.9353,2.9362,2.936,2.9363,2.935,2.9349,2.9349,2.9348,0,2.8587,2.8615,2.8661,2.8717,2.8755,2.8803,2.8852,2.8872,2.8945,2.8979,2.9032,2.9069,2.9142,2.9196,2.9259,2.9298,2.9336,2.9343,2.9348,2.9332,2.931,2.9323,2.9349,2.9343,2.9344,2.9344,2.9344,2.9344,2.8555,2.8579,2.8641,2.8691,2.8735,2.8781,2.8811,2.8861,2.8906,2.897,2.9005,2.9058,2.9119,2.9207,2.9245,2.9288,2.9301,2.9307,2.9308,2.9309,2.9305,2.9303,2.93,2.93,2.93,2.93,2.9301,0,2.8527,2.8571,2.8616,2.8685,2.8724,2.8757,2.8814,2.8845,2.8891,2.8945,2.8991,2.9053,2.9107,2.9171,2.9229,2.9251,2.927,2.9264,2.9264,2.9273,2.9289,2.928,2.9248,2.9248,2.9248,2.9248,2.9248,2.9248,2.8518,2.8561,2.8597,2.8663,2.8707,2.8759,2.8789,2.8832,2.8876,2.8943,2.8988,2.903,2.9088,2.9152,2.9203,2.9221,2.924,2.923,2.9252,2.9267,2.9271,2.9275,2.9267,2.9233,2.9233,2.9232,2.9232,2.9232]}]]